User: anonymous   Login
Location: Carrizo Plain National Monument
(35.0903°N, 119.7316°W)
Time: 18:17:51
(UTC-07:00)
Language:

DUCHIFAT 1 - Orbit

View from above orbital plane
View from above orbital plane
View from above satellite
View from above satellite

Ground track
Ground track

The orbit data is extracted from the following two-line orbital elements,

1 40021U 14033M   20093.77449771  .00000349  00000-0  41248-4 0  9997
2 40021  97.9390  24.5672 0012882 170.5742 189.5720 14.90850925314619
Epoch (UTC): 02 April 2020 18:35:16
Eccentricity: 0.0012882
inclination: 97.9390°
perigee height: 586 km
apogee height: 604 km
right ascension of ascending node: 24.5672°
argument of perigee: 170.5742°
revolutions per day: 14.90850925
mean anomaly at epoch: 189.5720°
orbit number at epoch: 31461

The dashed part of the orbit path shows where the satellite is in the earth's shadow,  

DLR